Location: アルンシュタイン
(50.0000°N, 10.0000°E)
Time: 15:02:58
(UTC+02:00)

Vanguard 1 - Pass Details

Date: 19 September 2024
Orbit: 649 x 3825 km, 34.3° (Epoch: 02 October)

Event Time Altitude Azimuth Distance (km) Brightness Sun altitude
Rises 16:38:32 0° 260° (W) 5,049 14.8 24.7°
Reaches altitude 10° 16:43:43 10° 243° (WSW) 3,431 14.9 24.0°
Maximum altitude 16:48:29 17° 207° (SSW) 2,406 13.2 23.3°
Drops below altitude 10° 16:52:09 10° 167° (SSE) 2,507 12.4 22.8°
Sets 16:55:06 0° 146° (SE) 3,190 12.6 22.3°
